Wind_Speed
16 17 18 19 20 20 19 18 17 16 16 17 18 19 21 23 24 25 25 25 25 25 24 24 23 23 22 21 20 18 17 15 13 12 10 9 9 8 8 8 8 8 7 7 6 6 6 6 7 7 8 8 9 9 9 9 8 7 5 4 4 4 4 5 6 8 8 7 6 5 6 8 8 8 8 8 7 8 7 6 7 8 9 10 11
16 17 18 19 20 20 18 17 16 16 16 17 17 18 20 21 23 23 23 22 22 22 22 22 22 22 21 19 18 16 14 12 10 8 6 5 5 5 5 5 5 5 5 5 5 4 4 4 5 5 6 7 8 9 10 10 8 6 5 5 5 5 5 5 6 8 9 9 9 9 9 9 10 10 9 9 8 8 8 7 6 7 8 9 9
16 17 18 19 19 19 19 18 16 16 16 17 17 18 18 20 21 21 20 19 19 19 20 20 20 19 18 16 15 13 11 8 5 4 3 2 1 2 2 2 2 2 2 2 2 2 1 2 4 5 6 8 9 10 10 10 8 5 4 4 4 4 4 5 7 9 10 11 12 12 12 11 11 10 9 9 9 8 8 7 6 6 7 8 10
14 16 17 18 19 19 19 18 18 17 17 17 17 18 19 19 20 19 17 16 16 17 18 19 18 17 15 14 12 11 8 5 4 3 3 2 2 2 3 3 2 1 1 1 2 2 3 3 4 6 7 9 11 11 11 10 8 5 2 2 2 3 4 6 8 10 11 12 13 13 13 13 13 12 10 10 9 8 8 8 7 7 7 7 9
12 15 17 18 18 19 19 19 19 18 18 18 18 19 20 20 20 17 15 13 15 17 18 18 17 16 15 13 12 10 8 7 6 6 5 4 3 4 5 5 4 4 4 4 5 5 6 7 7 8 10 11 12 12 11 10 8 6 4 3 3 4 6 8 9 11 12 13 14 14 14 14 14 14 13 12 11 10 9 9 8 8 9 10 11
13 14 16 17 18 18 19 19 19 19 20 20 20 20 21 21 20 18 15 14 16 18 19 19 18 17 16 15 14 12 10 9 8 7 7 6 5 5 6 6 6 7 7 8 8 9 10 11 12 12 12 13 12 12 11 10 9 7 7 6 6 7 8 9 11 12 13 14 15 16 16 16 16 16 16 15 15 15 13 12 11 10 11 13 15
16 15 15 16 17 18 18 18 19 20 20 21 22 22 22 22 21 19 16 16 17 19 20 21 20 20 18 17 16 14 13 12 11 11 10 9 8 7 8 8 9 11 12 12 13 13 14 14 14 14 13 12 12 11 11 11 10 9 9 9 10 10 11 12 14 15 15 15 16 17 17 18 19 18 18 18 18 18 18 17 17 15 14 15 16
18 17 16 15 16 16 17 18 18 19 20 21 22 22 22 22 21 20 18 18 18 19 20 21 22 21 20 19 18 17 16 16 16 16 15 14 13 13 13 13 14 14 15 15 15 15 15 14 14 13 12 12 12 12 12 11 11 12 12 12 13 13 14 16 17 18 18 18 18 18 18 19 20 20 21 21 21 21 22 21 21 21 20 19 19
20 19 18 17 16 15 16 17 18 18 19 20 20 20 21 21 21 20 19 19 19 19 20 21 21 21 21 21 20 19 19 19 19 19 18 18 18 17 16 16 17 17 17 15 15 15 14 14 15 15 13 13 13 14 14 14 14 15 16 16 16 17 18 19 19 20 20 19 20 20 20 20 21 22 23 23 24 24 25 25 24 24 23 23 23
25 22 21 19 18 17 17 16 16 17 17 17 17 18 18 19 19 18 17 17 18 19 19 20 20 20 21 21 21 20 21 21 21 21 21 22 22 20 18 17 17 17 16 15 16 16 14 14 15 17 16 16 16 17 17 17 18 18 18 18 19 20 20 21 20 20 20 20 20 21 21 21 22 24 25 25 26 27 27 28 28 28 27 27 26
29 27 24 22 21 21 21 19 18 17 16 15 15 15 16 16 17 16 16 16 17 18 18 19 19 20 21 22 21 21 22 23 23 23 24 24 23 22 21 20 20 19 19 20 21 19 18 18 17 18 19 19 20 21 20 20 19 20 20 20 21 21 21 21 21 21 21 21 21 22 22 22 22 23 25 26 27 28 29 30 30 30 31 30 30
33 31 28 26 25 25 24 23 22 20 19 17 16 15 15 16 16 16 15 16 17 18 19 19 21 22 23 23 23 23 24 24 24 24 24 23 22 21 21 22 23 23 24 24 23 22 21 21 20 21 22 23 22 22 22 21 22 22 23 24 24 24 24 24 24 24 24 24 24 23 23 23 23 24 25 26 27 28 29 30 30 30 31 31 31
35 34 33 31 30 29 27 26 25 24 23 22 21 20 19 19 19 18 17 17 18 19 19 20 21 23 23 23 22 23 23 23 23 23 22 21 20 20 21 22 24 25 26 25 25 24 23 23 24 25 26 25 25 24 24 24 26 26 27 28 28 28 28 27 27 27 27 26 25 24 24 25 25 25 26 27 28 27 27 27 29 30 31 31 32
37 36 36 35 34 33 32 30 29 27 26 25 24 24 23 23 22 21 21 21 21 21 21 22 23 23 23 22 22 23 23 23 23 22 22 21 21 22 23 23 24 25 26 26 25 25 25 25 26 28 28 27 26 27 27 28 29 30 31 32 32 32 32 31 30 30 30 30 30 29 29 29 29 29 29 29 29 28 28 30 32 33 33 34 34
39 37 37 36 36 36 35 34 32 30 29 27 27 26 26 25 25 25 25 25 24 24 24 25 26 26 25 25 25 26 26 26 25 25 24 24 24 25 25 25 25 26 27 27 27 27 28 28 28 29 31 32 31 31 32 32 32 33 35 35 35 35 35 34 33 34 34 35 34 34 34 34 34 33 33 32 31 31 32 35 37 37 37 37 38
42 40 38 37 37 37 36 35 34 32 31 30 30 29 29 29 29 29 28 27 26 26 27 28 27 28 28 29 30 30 29 29 28 28 27 27 27 28 28 28 28 28 29 30 31 31 32 33 32 32 33 34 35 35 36 36 37 38 39 39 38 38 38 36 36 37 37 37 36 36 36 36 35 35 35 34 33 34 36 39 42 42 43 43 44
45 43 41 40 39 37 36 34 34 34 34 32 31 31 31 31 31 31 30 30 30 30 30 28 28 29 31 32 32 31 31 32 32 31 32 31 31 32 33 33 33 33 33 34 34 35 35 35 35 35 35 36 37 38 40 41 42 43 43 42 42 41 40 39 39 39 38 38 38 38 37 37 37 37 36 36 36 39 43 46 48 50 50 50 50
49 47 45 43 40 38 36 35 35 36 36 34 31 31 31 31 32 33 33 33 33 34 31 28 29 33 34 33 34 34 34 35 35 34 34 34 35 36 38 38 38 37 37 37 36 37 38 37 36 37 37 38 40 42 44 45 45 45 44 43 41 40 38 39 40 40 39 40 41 41 40 39 39 38 38 40 43 47 50 52 53 54 54 54 55
52 51 48 45 42 40 39 38 38 38 39 37 34 33 33 33 34 35 36 35 36 36 33 30 32 35 34 33 34 35 35 36 36 35 34 34 36 38 39 40 41 40 40 39 38 39 40 39 39 39 40 41 42 44 47 48 48 47 46 44 43 42 39 39 41 42 43 43 43 43 43 42 41 41 42 45 48 51 53 55 56 57 57 56 56
53 52 51 48 44 42 42 41 40 40 40 38 36 36 36 36 37 38 37 37 39 39 36 34 35 37 36 35 35 35 35 36 37 36 36 36 37 38 39 41 41 41 41 40 39 40 42 42 43 44 45 45 45 47 49 51 51 49 48 48 48 46 43 43 44 46 48 49 47 47 46 46 47 47 48 50 52 55 57 59 60 60 60 59 59
54 53 52 50 47 44 43 42 41 40 40 39 38 39 40 40 41 41 41 40 40 39 38 37 38 40 40 40 39 37 37 37 37 38 38 37 37 36 37 39 40 41 41 41 41 41 44 46 48 48 49 49 49 50 51 52 52 52 52 53 51 48 47 49 50 51 52 53 53 53 53 53 55 55 55 56 58 61 63 64 65 67 67 66 65
56 56 54 51 49 47 44 43 42 41 41 41 41 41 41 40 41 43 46 45 43 41 41 40 41 42 43 43 43 42 40 40 40 41 41 41 40 39 38 39 41 42 44 45 45 45 46 48 51 52 52 52 53 54 55 56 57 57 57 55 52 51 53 55 55 55 55 56 57 58 59 61 63 64 64 65 67 68 69 70 71 73 74 74 72
59 59 57 53 52 50 47 44 43 43 43 43 43 43 43 43 43 44 46 47 46 46 46 44 45 46 43 42 43 43 43 44 44 44 44 45 45 45 44 44 44 44 45 48 49 50 51 52 54 56 56 57 58 60 61 62 62 61 58 55 54 57 58 57 56 56 57 59 60 61 63 65 67 69 71 72 73 74 74 75 76 78 79 79 78
63 62 60 57 55 54 50 45 44 45 46 45 43 44 46 47 47 48 48 48 49 50 49 48 49 50 48 45 44 44 45 46 47 47 48 48 49 49 49 49 48 46 46 48 50 53 56 58 60 62 63 63 64 64 64 63 63 62 60 58 59 61 61 60 60 60 60 61 62 64 66 68 69 71 73 75 77 78 79 81 84 85 86 85 85
66 65 63 60 58 56 54 50 48 48 48 46 44 45 48 50 51 52 53 53 52 53 52 51 50 50 51 51 51 51 52 52 52 52 53 53 53 53 53 53 52 50 49 49 51 54 57 60 63 65 66 67 65 63 62 62 62 63 63 63 64 64 64 65 66 66 66 67 68 70 73 74 76 78 80 82 84 86 88 90 92 92 92 91 91
69 68 66 63 59 56 54 53 52 51 49 47 44 46 50 52 53 55 57 56 54 53 54 54 53 53 53 54 54 56 57 58 58 59 59 58 57 57 56 56 56 55 54 53 54 56 58 59 62 64 66 66 64 62 62 62 63 64 65 67 67 68 69 70 71 72 74 75 77 79 81 82 84 86 88 90 91 93 94 96 96 96 96 96 96
71 70 67 65 63 60 57 55 55 54 52 48 46 48 53 54 55 57 58 58 58 57 57 58 59 60 59 59 59 59 59 61 62 63 63 63 62 61 60 60 60 60 59 58 59 59 60 60 61 61 63 64 64 64 65 64 64 66 68 70 70 71 73 74 75 76 78 80 82 84 86 88 89 91 92 94 95 97 98 99 100 100 101 101 101
72 70 69 67 66 65 63 62 60 58 57 54 52 54 58 60 60 61 60 60 62 62 61 61 62 64 65 64 64 63 63 63 64 66 67 67 66 65 65 64 64 64 64 63 63 63 64 64 62 60 60 62 64 66 67 68 69 71 72 73 73 74 75 76 78 79 81 82 85 88 90 91 92 93 95 96 98 99 101 102 103 104 105 106 107
74 71 70 69 66 63 63 65 65 64 63 63 62 62 63 64 65 65 64 63 64 64 63 63 64 66 67 67 66 67 67 66 66 68 69 69 68 67 66 66 65 66 67 67 67 66 67 68 67 66 65 66 67 68 68 69 71 72 73 73 74 75 77 79 81 83 85 87 89 91 93 94 95 96 97 99 100 101 103 104 106 107 108 109 110
76 73 71 71 69 66 63 63 64 66 67 69 70 70 69 68 69 69 69 68 67 66 65 65 66 68 69 69 69 69 71 71 70 70 70 70 69 69 69 68 68 68 68 69 70 70 70 70 71 71 71 72 73 72 71 71 72 73 74 75 77 79 82 84 87 89 91 93 95 96 97 98 98 99 100 102 103 104 106 107 109 110 111 112 113
79 76 73 72 72 73 72 69 66 66 69 71 72 73 74 73 73 73 73 73 72 70 69 68 69 69 70 72 72 72 72 73 73 72 72 72 72 72 73 73 72 72 71 72 73 74 74 74 74 74 73 73 74 74 74 74 75 78 80 82 85 87 89 92 94 96 97 98 99 100 100 101 102 103 104 105 107 108 110 111 112 114 115 116 117
78 77 78 77 75 75 77 78 75 73 72 73 73 73 74 75 75 75 76 77 76 76 75 75 74 74 73 75 77 76 75 75 74 73 72 72 72 73 73 75 75 75 75 76 77 78 78 78 78 78 77 77 77 78 79 80 83 85 87 89 92 94 96 98 99 100 101 102 103 103 104 104 105 106 107 109 112 114 115 117 117 118 120 121 122
74 73 75 78 79 77 76 77 80 80 79 77 77 76 74 75 77 77 77 78 79 80 80 80 79 78 77 78 80 81 80 79 77 76 74 74 74 76 78 80 81 81 81 80 79 79 79 80 81 82 82 83 84 86 87 88 89 91 93 94 96 98 100 101 102 102 104 105 106 107 107 107 109 111 114 117 119 120 121 122 122 123 125 126 127
74 69 68 71 77 79 77 75 76 80 83 81 80 80 79 78 78 78 77 77 77 79 80 81 81 80 80 80 82 84 83 83 82 81 81 82 83 86 87 86 84 82 81 80 79 79 80 81 82 83 85 87 89 90 92 93 94 95 97 99 100 102 103 104 105 106 108 110 110 111 112 114 117 120 122 124 124 125 125 126 126 127 128 128 129
78 71 65 64 69 76 80 77 75 78 83 84 82 82 82 81 81 80 79 79 79 79 80 81 82 83 83 83 84 86 86 86 86 86 87 88 89 90 88 85 82 81 81 81 81 81 82 83 83 84 86 87 89 91 93 95 97 99 101 103 105 106 107 108 110 111 112 113 114 116 118 121 123 125 125 126 126 126 127 128 128 129 129 130 130
83 77 69 63 65 71 77 79 78 81 86 86 84 84 84 84 85 85 84 83 84 84 84 84 85 86 86 86 86 87 87 88 88 88 89 89 88 87 85 83 82 82 82 82 83 84 84 85 86 86 87 89 90 92 93 95 97 100 102 104 106 107 109 110 111 113 115 116 118 120 122 123 124 125 125 126 127 128 128 129 130 131 132 132 133
86 84 78 71 68 70 73 76 79 83 86 86 86 87 86 86 86 87 86 85 84 84 85 85 85 86 87 87 86 86 86 88 89 91 91 90 88 86 85 84 84 84 84 85 86 86 87 88 89 90 91 92 93 94 95 97 99 101 103 104 106 108 110 112 114 116 118 119 120 121 122 123 124 125 126 127 128 130 130 131 132 132 133 133 134
85 87 86 82 77 75 75 76 76 79 81 83 84 85 86 85 86 86 86 85 84 83 83 84 84 84 85 86 86 86 86 87 87 88 88 87 86 86 86 86 86 86 87 88 88 89 90 91 92 93 94 95 96 97 98 99 101 103 105 107 109 111 113 115 117 118 119 120 121 122 123 124 125 126 127 128 128 129 130 131 131 132 133 134 135
85 86 90 91 88 83 81 80 79 78 78 79 81 82 84 84 84 84 84 84 84 84 84 84 85 85 85 85 84 84 84 84 83 83 84 84 85 86 86 87 88 88 89 90 91 91 92 93 94 95 96 97 99 100 101 103 105 107 109 111 113 114 115 116 117 118 119 120 121 122 123 123 124 125 125 126 127 129 130 131 133 134 135 137 139
86 86 89 94 96 93 88 86 84 82 80 79 80 82 83 84 84 83 82 81 81 82 82 83 84 84 84 83 82 82 82 82 83 83 84 85 86 87 88 89 90 91 92 93 94 95 96 98 99 100 101 103 104 105 106 107 108 110 111 112 113 114 115 116 116 117 118 119 120 121 122 123 124 125 127 128 130 131 133 135 137 139 141 143 145
88 88 89 92 96 99 96 92 90 88 86 84 83 83 84 85 85 85 84 83 83 83 83 83 83 84 84 84 83 82 82 82 83 84 85 87 88 89 91 92 93 95 96 97 98 99 101 102 103 104 106 106 107 108 108 109 109 110 110 111 112 113 114 114 115 117 118 119 121 123 124 126 127 129 131 132 134 136 138 141 143 145 147 148 149
88 90 90 91 94 98 100 99 96 94 93 92 90 89 88 88 88 89 89 89 88 88 88 89 89 89 88 88 87 87 86 85 85 86 87 88 89 90 91 93 94 96 97 98 99 101 102 103 104 105 105 106 106 106 106 106 107 108 109 110 112 114 115 117 119 120 122 124 126 127 129 131 133 135 137 139 141 143 145 146 147 148 148 149 148
86 89 92 93 94 96 99 102 101 100 99 98 97 96 94 94 93 93 93 93 93 93 94 94 95 95 95 95 94 94 93 93 92 93 93 93 94 94 95 96 97 98 99 100 101 102 103 103 103 104 104 104 105 105 106 108 109 111 113 115 118 120 122 124 125 127 129 131 132 134 136 138 139 141 142 144 145 145 146 146 146 146 146 145 143
82 86 90 92 94 95 97 100 103 103 103 102 102 101 100 99 98 97 97 96 96 96 97 97 97 97 98 98 98 98 97 97 97 97 98 99 99 100 100 101 102 103 103 103 104 104 105 105 106 106 107 108 109 110 112 114 116 118 120 122 124 126 128 130 132 133 135 136 137 138 140 141 142 142 143 143 143 143 143 143 142 141 139 136 134
71 79 85 89 92 95 97 99 101 102 103 103 103 104 104 103 102 101 100 99 99 99 100 100 100 100 99 99 99 99 99 99 99 99 100 100 101 102 102 103 103 103 104 105 106 106 107 108 109 110 111 112 114 115 117 119 121 123 125 127 128 130 132 133 134 136 136 137 138 139 139 140 140 141 141 140 140 139 137 136 134 132 130 128 126
57 65 73 80 86 91 94 96 98 99 101 102 103 103 104 104 105 105 105 104 104 103 103 103 103 103 102 101 101 101 101 101 101 101 101 102 102 103 103 103 104 105 106 107 108 108 109 110 111 113 114 116 118 119 121 123 124 126 127 129 130 132 133 134 134 135 136 136 137 137 137 137 136 136 135 134 133 131 129 127 126 125 123 122 121
47 52 58 65 73 79 85 89 92 95 97 99 100 101 101 102 103 103 104 105 106 106 106 106 106 105 105 104 104 104 104 104 103 104 104 105 105 106 107 107 108 109 109 110 111 112 113 114 115 117 118 119 120 121 123 124 126 127 128 130 131 131 132 132 132 133 133 133 133 132 131 130 129 128 127 126 125 124 122 121 120 120 119 118 117
47 48 51 54 59 66 73 79 84 88 92 96 99 101 101 101 101 101 102 103 104 105 105 105 105 105 105 106 106 107 107 107 107 107 108 108 109 109 109 110 111 112 113 114 115 116 116 117 118 118 119 120 121 123 124 125 126 127 127 128 128 128 128 128 128 127 127 126 125 124 123 123 122 122 121 120 120 119 118 117 116 115 113 112 110
50 51 52 53 56 59 64 69 73 78 82 87 92 96 98 99 99 100 100 101 102 103 103 103 103 103 104 105 106 107 108 108 109 110 110 111 111 112 112 113 114 114 115 116 116 116 117 117 118 119 120 120 121 122 123 123 123 123 123 122 122 122 121 121 120 120 119 119 118 118 118 118 118 118 117 117 116 115 114 112 111 109 108 106 105
53 54 55 56 57 59 61 63 66 70 74 78 82 86 89 91 93 95 96 98 99 100 100 100 101 101 102 104 105 106 107 108 109 110 110 111 112 113 113 114 114 115 115 115 116 116 116 117 117 117 118 118 118 118 117 117 116 115 115 115 115 114 114 114 114 114 114 115 115 115 115 115 115 115 114 113 112 110 108 107 106 105 104 102 101
54 56 57 59 60 60 61 62 64 67 71 74 76 78 80 82 84 87 90 92 94 95 96 97 98 99 101 102 103 104 105 107 107 108 109 109 110 110 110 110 110 110 110 110 110 110 111 111 110 110 110 110 110 109 109 108 108 108 109 109 110 110 111 111 111 112 112 112 113 113 113 113 113 112 110 108 106 104 103 103 102 101 99 98 96
Wind_Direction
164 163 162 160 159 158 157 156 155 153 153 152 149 146 144 144 147 149 150 150 152 150 146 143 141 139 138 137 135 132 129 125 120 111 102 95 86 80 79 78 74 71 70 67 62 60 58 53 47 40 33 28 25 19 15 14 20 30 42 52 61 61 63 60 49 40 35 32 29 23 15 11 6 2 2 1 355 350 346 341 338 340 344 349 354
172 169 168 168 167 165 163 162 162 161 160 160 158 154 150 149 151 154 156 156 154 150 146 146 147 148 146 144 141 138 135 133 126 116 108 94 71 58 60 62 60 65 68 63 55 53 44 31 22 14 7 4 2 359 356 358 6 23 41 53 60 63 62 50 32 21 16 12 9 7 6 8 9 8 7 6 3 359 358 353 348 350 355 0 5
181 178 175 174 173 172 170 168 167 167 168 168 168 165 160 156 155 157 159 157 153 151 153 155 156 154 150 147 146 145 143 141 140 138 135 122 60 16 11 17 34 60 65 53 47 40 9 347 339 335 335 336 337 338 341 343 348 3 28 46 53 48 33 14 5 0 356 355 355 355 355 357 359 0 2 3 1 359 358 355 352 354 359 1 2
185 184 182 181 179 178 175 173 171 171 171 171 172 173 170 165 161 161 161 158 158 162 166 166 164 162 160 160 161 164 168 176 195 215 215 207 228 269 286 288 282 279 297 319 316 308 299 301 305 309 314 317 318 321 325 327 325 327 340 1 6 2 354 349 347 346 346 346 347 347 347 347 348 347 347 348 347 346 345 341 335 331 331 334 339
188 187 187 187 186 184 182 179 176 175 175 175 176 177 178 176 174 173 171 168 173 180 179 178 178 177 177 179 184 191 201 212 222 232 231 228 245 271 274 273 277 285 291 296 301 301 300 299 300 302 306 308 309 310 312 311 306 299 297 303 316 326 332 335 336 337 338 338 338 338 337 337 338 338 336 334 333 330 328 325 321 313 307 305 308
191 190 189 190 191 189 187 185 183 181 180 180 181 182 185 187 189 190 188 183 187 191 189 188 191 193 194 197 203 209 217 226 230 230 229 237 261 282 285 285 293 300 299 298 298 299 298 297 299 301 303 305 305 305 304 301 294 288 287 292 300 307 314 320 325 327 329 329 329 329 328 328 328 328 326 325 324 323 322 318 315 308 300 297 298
192 190 188 189 192 193 191 190 188 188 187 187 188 189 191 194 199 201 197 191 192 193 193 195 198 202 205 208 214 221 227 236 243 244 245 253 263 274 278 283 294 302 302 299 298 297 294 294 295 297 300 301 301 299 299 298 293 288 285 287 291 296 303 310 315 318 319 320 320 321 321 321 321 321 321 321 321 320 320 318 315 311 305 299 296
197 191 186 184 187 190 192 194 194 193 193 194 194 195 197 199 203 203 198 195 197 197 197 201 205 210 214 218 225 232 238 245 253 258 260 263 267 270 274 281 291 296 296 299 301 300 297 296 297 296 295 295 293 291 293 295 294 292 291 291 292 295 300 305 308 311 312 313 313 314 314 315 315 316 317 318 319 318 317 317 315 313 311 308 304
206 198 190 184 182 183 188 193 196 197 199 200 200 200 202 204 207 206 200 199 203 204 204 208 212 217 222 227 234 240 244 248 254 259 263 266 268 268 271 280 287 288 291 295 295 293 295 296 295 293 289 287 286 286 287 288 291 292 292 291 292 294 297 299 301 304 305 307 308 309 309 309 310 311 312 313 314 315 314 314 314 312 312 311 310
210 208 201 192 186 185 187 189 192 196 199 202 204 207 211 213 215 215 210 209 212 213 213 215 219 223 226 231 237 243 248 250 252 256 259 264 267 264 264 271 276 277 277 273 268 270 273 270 273 280 282 281 281 282 282 283 285 288 290 290 291 292 294 295 296 298 299 300 301 303 304 305 306 306 308 310 311 312 313 313 313 313 313 312 312
211 211 209 204 198 196 194 192 193 195 196 198 203 209 215 221 225 227 225 224 226 227 227 226 229 232 233 235 240 245 250 252 254 256 258 262 265 264 263 263 262 260 257 252 253 261 262 255 256 267 276 277 278 278 279 281 283 286 288 291 292 292 293 294 294 294 294 295 296 296 298 300 302 303 304 306 308 309 311 311 312 312 311 311 310
213 212 211 211 210 208 204 201 200 200 200 201 204 209 215 220 224 227 228 229 232 235 236 237 239 241 242 243 244 247 250 252 255 256 257 261 263 263 262 260 257 257 256 255 257 261 261 260 264 274 280 279 278 278 278 277 280 284 287 288 290 290 290 291 292 291 291 291 291 292 293 294 297 300 302 302 303 304 306 308 309 310 311 311 309
214 214 212 212 214 216 214 212 209 208 207 207 209 212 217 222 225 227 228 229 231 234 235 237 240 242 245 247 248 249 251 252 253 253 255 258 260 260 260 259 258 258 259 261 266 268 266 266 271 281 284 281 278 278 277 277 278 280 283 286 288 288 289 290 291 291 289 287 287 287 288 289 293 298 302 302 301 300 302 305 307 308 308 308 308
215 215 214 213 215 217 218 218 218 216 214 214 214 217 221 225 229 231 233 234 235 236 237 238 240 243 245 248 250 252 253 253 254 255 256 257 258 259 260 260 260 260 261 265 268 268 265 263 266 274 279 277 274 276 279 281 280 278 281 284 285 287 288 290 292 293 292 289 286 285 285 285 287 293 298 301 299 297 298 303 306 306 305 303 303
216 216 215 215 217 218 220 221 222 222 222 222 222 224 226 229 232 234 237 239 239 240 241 242 244 246 248 250 251 252 253 254 254 255 256 257 257 258 259 261 263 266 268 271 271 269 267 264 263 267 271 271 271 273 278 280 279 279 280 282 284 288 288 288 292 295 295 293 290 287 286 285 286 289 293 297 298 297 297 300 304 305 304 302 301
217 218 217 217 218 219 220 222 223 224 225 225 226 228 230 232 234 236 239 241 243 243 243 244 246 248 250 251 252 252 254 255 255 256 256 256 258 259 261 263 264 265 267 270 272 272 270 268 268 269 271 271 271 271 274 275 275 276 277 279 282 287 287 286 290 294 293 292 292 291 288 287 287 289 291 294 296 297 299 301 302 303 303 301 300
217 218 219 220 220 221 222 223 224 225 224 224 225 228 230 233 235 237 239 240 242 243 244 245 248 249 249 251 253 254 254 255 256 257 258 258 260 262 263 263 264 265 266 268 271 273 273 273 274 274 273 273 271 271 273 274 274 274 275 277 280 283 283 284 287 288 288 289 291 291 288 287 287 289 291 293 295 298 301 302 303 303 302 300 299
219 219 220 221 222 223 224 225 227 229 230 230 229 230 232 234 237 238 239 239 241 244 245 246 249 251 250 251 254 255 255 255 256 257 259 261 262 263 264 264 265 266 267 269 271 274 275 275 274 273 273 272 271 272 274 274 274 274 275 277 278 279 280 281 282 282 284 287 290 288 285 285 286 288 290 292 295 298 300 301 302 301 300 299 299
219 219 220 221 223 225 226 228 230 233 235 235 233 233 235 237 239 240 239 240 242 244 244 243 246 250 251 251 253 254 254 254 255 256 260 263 263 264 265 265 266 267 269 270 272 273 274 274 273 274 275 274 275 276 276 275 274 274 275 276 277 277 276 277 277 279 281 285 286 286 283 282 283 284 285 288 291 294 296 299 300 300 299 298 297
219 220 220 221 224 227 227 229 232 235 237 236 236 237 239 242 244 243 243 244 246 247 246 244 245 248 250 250 251 252 253 253 254 256 260 263 265 267 267 266 266 267 269 270 272 272 272 271 270 272 274 275 276 276 275 275 276 277 277 278 278 276 275 278 280 281 282 283 284 283 281 279 279 280 282 285 288 290 293 296 298 298 297 295 294
218 219 221 222 224 226 226 229 233 237 239 240 241 240 241 244 246 247 249 252 253 253 253 252 250 249 249 248 248 250 252 253 254 256 258 260 264 267 269 270 270 269 269 270 273 274 272 270 271 275 278 278 275 274 273 275 278 281 283 283 282 280 282 285 286 286 287 286 285 282 280 279 280 280 281 283 285 287 289 291 294 295 295 295 293
219 219 221 223 225 225 225 229 235 239 241 243 245 244 244 246 248 249 251 254 254 254 255 256 256 253 250 249 249 250 252 254 255 255 257 260 262 264 267 270 272 272 272 273 274 275 273 271 273 277 278 276 274 273 275 278 281 283 285 285 286 287 289 290 290 289 288 288 286 284 283 282 282 282 281 282 283 285 286 288 290 292 294 295 294
223 222 223 226 227 226 227 231 237 240 242 245 248 251 253 253 252 252 254 255 255 253 253 254 255 254 253 252 251 251 252 254 255 256 257 260 263 265 265 266 268 270 272 273 275 275 274 274 275 276 276 276 275 276 279 281 282 283 284 285 286 288 289 289 289 288 287 287 286 286 286 285 285 284 283 283 283 284 286 287 290 292 293 294 294
227 226 227 229 229 228 229 233 237 241 242 245 249 254 256 256 256 256 257 257 256 254 252 253 255 255 254 253 252 252 254 255 255 256 258 259 262 264 265 265 266 267 268 270 272 274 274 275 276 277 278 278 278 278 279 280 281 282 283 284 286 288 287 287 287 287 287 286 286 286 286 286 286 286 285 285 286 287 289 291 293 294 295 295 294
230 231 231 232 231 230 230 231 235 241 244 245 247 251 254 256 257 258 258 257 254 253 253 254 255 255 254 254 254 256 257 257 256 257 258 260 261 263 264 265 266 266 266 266 268 272 274 275 277 278 278 278 278 277 277 278 279 280 281 283 286 288 288 288 287 287 288 288 288 288 289 289 290 291 291 292 292 293 295 296 297 296 295 294 293
231 232 233 232 232 231 231 232 234 238 242 243 242 245 251 254 255 256 256 256 254 253 254 253 253 257 259 259 260 262 262 260 258 258 259 260 261 261 263 265 266 266 267 266 266 268 271 274 276 277 276 275 275 275 275 276 278 279 280 282 285 288 290 290 290 290 290 291 291 292 292 293 294 294 294 295 295 296 296 296 295 295 294 294 293
230 231 232 232 232 231 232 233 234 236 239 238 236 237 242 246 249 251 253 254 253 254 254 252 252 257 261 263 266 268 266 263 260 259 260 261 261 261 262 264 265 266 267 268 267 267 268 271 274 274 271 269 271 273 275 276 278 279 280 282 284 287 289 290 290 290 290 290 291 291 292 292 292 292 292 293 293 293 293 293 293 294 294 294 294
228 230 231 232 232 233 234 235 235 235 235 234 233 233 236 239 242 246 249 251 251 252 253 253 254 257 261 264 267 268 267 265 263 261 261 261 262 263 264 265 265 265 266 267 268 267 267 268 270 271 268 265 267 269 271 273 275 277 278 279 280 281 283 284 284 284 285 285 286 287 288 288 288 288 289 289 290 290 291 292 293 293 294 294 295
227 228 230 231 231 232 234 236 235 234 234 234 233 234 237 239 241 244 246 248 250 251 251 253 255 259 261 263 265 265 265 265 264 262 261 261 262 263 264 265 266 266 265 266 268 269 268 267 267 268 267 266 267 268 269 270 272 273 274 274 276 277 279 280 281 282 283 284 285 286 287 287 288 288 289 289 290 291 291 292 293 294 294 295 295
227 227 229 230 231 230 231 232 232 231 233 235 235 236 239 242 244 245 245 247 250 251 251 252 254 257 259 261 261 262 263 264 264 263 262 262 262 263 263 264 265 265 266 266 267 269 270 270 270 270 270 270 269 269 270 270 270 271 272 274 276 278 279 281 282 283 285 286 287 289 289 289 290 290 291 291 292 292 293 293 293 294 294 294 294
228 228 229 229 230 231 232 232 232 232 233 235 236 238 240 242 244 244 245 246 247 249 250 250 251 254 256 259 260 260 262 264 264 264 263 263 262 263 264 265 266 267 268 268 268 269 270 271 271 272 272 271 269 268 268 268 268 269 272 275 278 280 281 282 283 284 286 287 288 289 290 290 290 290 291 291 292 292 293 293 293 292 292 292 292
228 229 230 230 230 231 233 235 235 236 236 236 235 237 240 242 243 244 245 245 247 248 250 251 252 254 256 258 260 262 263 264 264 264 262 262 262 264 267 268 269 269 270 271 271 271 271 271 271 271 270 269 267 266 266 267 269 270 273 275 277 279 281 283 284 285 285 287 288 288 289 289 289 290 290 291 291 292 292 292 292 292 292 292 292
225 227 230 231 231 230 231 234 235 235 236 235 235 236 240 243 243 244 246 247 248 249 251 253 254 256 257 259 260 261 261 262 262 262 262 263 264 268 271 273 272 270 271 272 272 271 270 270 270 270 270 269 269 268 269 270 270 271 273 274 276 278 280 282 283 284 285 286 286 287 287 287 288 289 289 290 291 291 292 292 293 293 293 294 294
221 223 226 230 231 230 229 231 233 233 232 234 236 237 240 242 243 244 245 247 248 250 251 253 255 256 257 258 258 259 260 261 262 263 263 265 268 271 275 275 273 270 270 271 271 270 270 270 270 271 271 270 270 270 270 271 271 272 273 274 276 278 279 280 281 282 283 284 285 286 286 287 288 289 290 291 292 292 293 293 293 293 293 293 293
219 220 221 225 229 230 229 230 232 233 232 233 235 237 239 241 243 245 246 248 249 251 252 253 254 256 256 257 258 259 260 262 263 263 265 267 269 272 273 272 271 269 269 269 270 270 270 271 271 272 272 273 273 273 272 272 272 273 274 275 276 278 279 280 281 282 283 284 285 286 287 288 289 290 291 292 292 292 292 292 292 292 292 292 293
220 218 218 220 224 228 229 229 231 234 236 236 237 239 240 241 244 247 249 250 252 253 254 254 254 255 257 258 259 260 261 262 264 265 267 269 270 269 269 269 268 269 269 270 270 270 271 271 272 273 274 274 275 275 275 275 276 276 276 277 278 279 280 281 282 283 284 285 286 287 288 289 290 290 291 291 291 291 291 292 292 292 292 292 293
222 219 219 219 221 225 228 228 229 233 237 238 239 240 242 243 245 247 249 250 251 252 253 254 254 254 254 256 258 260 261 263 264 266 267 268 268 268 268 269 269 270 270 271 271 272 272 273 274 274 275 275 275 276 277 277 278 278 279 279 280 281 281 282 283 284 285 285 286 287 288 289 289 290 290 291 291 291 291 291 292 292 292 292 292
224 222 221 221 222 224 226 228 230 232 235 237 238 238 239 241 242 244 247 248 249 250 251 253 253 253 253 254 255 257 258 260 262 264 265 266 267 268 269 270 270 271 271 272 272 273 273 274 274 275 275 276 276 276 277 277 278 279 280 280 281 282 282 283 284 285 285 286 287 288 289 289 290 290 290 291 291 291 291 291 291 291 291 291 291
226 225 223 223 224 225 226 227 229 231 233 235 236 237 236 237 238 240 243 245 248 249 250 252 253 253 254 254 255 256 256 258 259 261 262 264 265 266 268 268 269 270 271 271 272 273 273 274 274 275 276 276 277 277 278 278 279 280 281 281 282 283 283 284 285 286 286 287 288 288 289 289 289 289 289 289 289 289 289 289 289 290 290 290 290
227 226 225 225 225 226 227 228 229 231 232 233 235 236 236 236 236 237 239 242 244 246 248 249 251 252 253 254 255 256 257 258 259 261 262 263 264 265 266 267 269 270 271 272 272 273 274 275 275 276 277 278 279 279 280 280 281 281 282 283 283 284 284 285 285 286 286 287 287 287 287 287 287 288 288 288 288 288 288 289 289 290 290 291 292
227 228 227 227 227 227 229 229 230 231 233 234 235 236 237 237 237 238 239 240 242 244 246 248 250 251 253 254 256 258 259 260 261 262 263 264 265 266 267 268 269 270 271 272 273 274 274 275 276 277 278 278 279 280 281 281 282 282 283 283 284 284 284 284 284 285 285 286 286 286 286 287 287 287 287 287 288 288 289 290 290 291 292 293 293
228 229 229 229 228 229 230 231 232 232 234 236 237 239 239 240 241 242 243 243 244 246 247 249 250 252 253 255 257 259 260 262 262 263 264 265 266 267 268 269 270 271 271 272 273 274 275 276 277 278 278 279 280 280 281 281 281 282 282 282 282 283 283 284 284 285 285 286 286 286 287 287 287 288 288 289 290 290 291 292 292 293 294 294 295
229 230 230 230 230 230 231 233 234 235 236 237 239 240 242 243 245 246 247 248 249 250 251 252 253 254 256 258 260 261 263 264 265 266 266 267 268 269 270 270 271 272 273 274 274 275 276 277 277 278 279 279 279 280 280 281 281 282 282 283 283 284 284 285 285 286 286 287 287 287 288 288 289 290 290 291 291 292 293 293 294 294 295 295 295
232 232 232 232 232 232 233 234 235 237 238 239 240 242 243 245 247 248 249 251 252 253 254 255 256 257 259 260 262 264 265 266 267 268 269 270 271 271 272 272 273 274 274 275 275 276 277 277 278 279 279 280 280 281 282 282 283 284 284 284 285 285 286 286 287 287 288 288 289 289 289 290 290 291 291 292 292 293 293 294 294 295 295 296 296
237 236 235 235 235 235 235 235 236 238 239 241 242 243 244 246 248 249 251 252 254 255 256 257 258 259 260 262 263 265 266 267 268 269 270 271 272 273 273 274 274 274 275 275 276 277 277 278 279 280 281 281 282 283 283 284 284 285 285 285 286 287 287 287 288 288 289 289 289 290 290 291 291 292 292 293 293 294 294 295 295 296 296 296 296
243 241 240 239 239 238 238 238 239 240 241 242 244 245 246 247 248 250 251 253 254 255 257 258 259 260 261 263 264 265 266 267 268 269 270 271 271 272 273 273 274 275 276 277 278 278 279 280 281 282 282 283 283 284 284 284 285 285 286 286 287 287 288 288 288 289 289 290 290 291 291 292 292 293 293 294 294 295 296 296 296 297 297 297 297
252 249 246 244 243 243 242 242 242 242 243 244 245 246 247 248 249 250 252 253 254 255 256 258 259 260 262 263 264 265 266 267 268 269 270 271 271 272 273 274 275 276 277 278 279 280 281 282 282 283 283 283 284 284 284 285 285 286 286 287 287 288 288 288 289 289 290 290 291 292 292 293 293 294 295 295 296 296 297 297 297 298 298 298 298
254 253 252 250 249 247 246 245 245 245 245 245 246 246 247 249 250 252 253 254 255 256 257 258 259 261 262 263 264 265 266 267 268 269 270 271 272 273 274 276 277 278 279 279 280 281 281 282 282 283 283 283 284 284 285 285 286 286 287 287 288 288 289 289 290 290 291 292 292 293 294 294 295 295 296 296 296 297 298 298 298 298 298 299 299
255 253 252 251 251 250 250 249 248 248 249 249 249 249 249 250 251 253 254 255 256 257 258 259 260 261 262 263 264 265 266 267 268 269 271 272 273 274 275 276 277 278 279 280 280 281 281 282 282 283 283 284 284 285 285 286 286 287 287 288 289 289 290 290 291 292 292 293 293 294 294 295 295 296 296 297 297 298 299 299 299 299 299 299 300
256 254 252 250 250 250 251 251 251 251 251 252 253 253 253 253 254 254 255 256 257 258 259 260 261 262 263 264 265 266 267 268 269 270 271 272 273 274 275 276 277 278 279 280 280 281 281 282 283 283 284 284 285 285 286 287 287 288 288 289 289 290 291 291 292 293 293 293 294 294 295 295 296 296 297 298 299 299 299 299 299 299 300 300 301
255 252 250 248 247 247 248 249 249 249 250 252 253 255 255 256 256 257 257 258 258 259 260 261 261 262 263 264 266 267 268 268 269 270 271 273 274 275 276 277 278 279 280 280 281 281 282 283 283 284 285 285 286 287 287 288 288 289 289 290 291 291 292 292 292 293 293 293 294 295 296 296 297 298 299 300 300 300 299 299 300 300 300 301 301
Height
10959 10960 10961 10962 10963 10964 10966 10967 10968 10969 10970 10971 10972 10974 10975 10977 10978 10979 10980 10981 10982 10983 10985 10987 10988 10990 10992 10993 10994 10995 10996 10997 10997 10998 10998 10999 10999 10999 10999 10999 10999 10999 10999 10999 10999 10999 10999 10998 10998 10997 10997 10997 10996 10996 10996 10995 10995 10994 10994 10993 10993 10993 10993 10992 10992 10991 10991 10990 10989 10989 10988 10988 10987 10987 10986 10985 10985 10984 10984 10983 10983 10982 10982 10981 10981
10959 10960 10961 10962 10963 10965 10966 10967 10968 10970 10971 10972 10973 10975 10976 10978 10979 10980 10981 10982 10984 10986 10987 10989 10990 10991 10992 10993 10994 10995 10996 10997 10997 10998 10998 10999 10999 10999 10999 10999 10999 10999 10998 10998 10998 10998 10998 10998 10997 10997 10997 10996 10996 10996 10995 10995 10994 10994 10993 10993 10993 10992 10992 10992 10992 10991 10990 10990 10989 10988 10988 10987 10987 10986 10985 10984 10983 10983 10982 10982 10982 10982 10982 10981 10981
10959 10960 10961 10962 10964 10965 10966 10967 10969 10970 10971 10973 10974 10976 10977 10978 10979 10981 10982 10984 10986 10988 10989 10990 10991 10991 10993 10994 10995 10995 10996 10997 10997 10998 10998 10998 10999 10999 10999 10999 10999 10999 10998 10998 10998 10998 10997 10997 10997 10997 10996 10996 10995 10995 10994 10994 10993 10993 10993 10993 10992 10992 10992 10992 10991 10991 10990 10989 10989 10988 10987 10987 10986 10985 10984 10983 10982 10982 10981 10981 10981 10981 10981 10981 10980
10959 10960 10961 10962 10964 10965 10966 10967 10968 10970 10972 10973 10975 10976 10977 10978 10979 10981 10983 10985 10987 10988 10989 10990 10991 10992 10993 10994 10994 10995 10996 10996 10997 10997 10997 10997 10998 10998 10999 10999 10999 10998 10998 10998 10997 10997 10997 10997 10997 10996 10996 10995 10995 10994 10994 10994 10993 10993 10993 10992 10992 10992 10992 10991 10991 10990 10990 10989 10988 10988 10987 10986 10985 10985 10984 10983 10982 10982 10981 10980 10980 10980 10980 10979 10979
10958 10959 10961 10962 10964 10965 10966 10967 10968 10969 10971 10973 10975 10976 10977 10978 10979 10981 10982 10984 10986 10987 10988 10989 10990 10991 10992 10993 10993 10994 10995 10996 10996 10997 10997 10997 10998 10998 10998 10998 10998 10998 10998 10997 10997 10997 10997 10996 10996 10996 10995 10995 10994 10994 10994 10993 10993 10993 10992 10992 10992 10991 10991 10991 10990 10989 10989 10988 10988 10987 10986 10985 10985 10984 10983 10983 10982 10982 10981 10980 10979 10979 10978 10977 10977
10956 10958 10959 10961 10963 10964 10966 10967 10968 10969 10970 10972 10973 10975 10976 10978 10978 10979 10981 10983 10984 10985 10987 10988 10989 10990 10991 10992 10992 10993 10994 10994 10995 10996 10996 10997 10997 10997 10998 10998 10998 10997 10997 10997 10996 10996 10995 10995 10995 10994 10994 10994 10993 10993 10993 10992 10992 10992 10992 10991 10991 10991 10990 10990 10989 10989 10988 10988 10987 10986 10985 10985 10984 10983 10982 10982 10981 10981 10980 10979 10978 10978 10977 10976 10975
10954 10956 10958 10960 10962 10964 10965 10967 10968 10968 10970 10971 10972 10973 10975 10976 10977 10978 10979 10981 10982 10984 10985 10986 10987 10988 10989 10990 10991 10992 10993 10993 10994 10995 10995 10996 10996 10996 10997 10997 10997 10996 10996 10996 10995 10995 10994 10993 10993 10993 10992 10992 10992 10992 10992 10991 10991 10991 10991 10991 10990 10990 10989 10988 10988 10988 10987 10987 10986 10985 10984 10983 10983 10982 10981 10981 10980 10980 10979 10979 10978 10977 10976 10975 10974
10953 10954 10955 10957 10960 10962 10964 10966 10967 10968 10969 10970 10971 10972 10973 10974 10975 10976 10978 10980 10981 10982 10984 10985 10986 10987 10988 10989 10990 10991 10992 10992 10993 10993 10993 10994 10994 10995 10995 10995 10995 10995 10995 10994 10994 10993 10992 10992 10991 10991 10991 10991 10991 10990 10990 10990 10990 10990 10990 10989 10989 10988 10988 10987 10987 10986 10986 10985 10985 10984 10983 10982 10981 10981 10980 10980 10979 10978 10977 10977 10976 10975 10975 10974 10974
10954 10954 10955 10956 10958 10960 10962 10964 10965 10967 10968 10969 10970 10971 10972 10973 10974 10975 10977 10978 10979 10981 10982 10983 10984 10986 10987 10988 10989 10989 10990 10991 10991 10991 10991 10992 10992 10993 10993 10994 10994 10993 10993 10993 10993 10992 10990 10990 10990 10989 10989 10989 10989 10989 10989 10989 10988 10988 10988 10988 10988 10987 10987 10986 10985 10985 10984 10984 10983 10982 10982 10981 10980 10979 10978 10978 10977 10976 10975 10975 10974 10974 10973 10973 10972
10952 10954 10955 10955 10956 10958 10959 10961 10963 10965 10966 10968 10969 10971 10972 10973 10974 10975 10976 10978 10979 10980 10981 10982 10983 10984 10985 10986 10987 10988 10988 10988 10988 10989 10989 10990 10990 10991 10992 10992 10991 10990 10989 10989 10989 10988 10986 10986 10986 10986 10986 10987 10987 10987 10987 10987 10987 10986 10986 10986 10986 10985 10985 10984 10984 10983 10983 10982 10981 10981 10980 10979 10978 10977 10976 10975 10975 10974 10973 10972 10972 10971 10971 10970 10970
10949 10952 10954 10955 10956 10956 10957 10958 10960 10962 10964 10966 10968 10969 10971 10972 10973 10974 10975 10977 10978 10978 10980 10981 10982 10983 10984 10985 10985 10986 10986 10986 10986 10986 10987 10987 10988 10989 10989 10989 10987 10986 10984 10983 10983 10984 10983 10983 10982 10983 10984 10984 10984 10984 10984 10984 10984 10984 10983 10983 10983 10982 10982 10981 10981 10981 10980 10980 10979 10979 10978 10977 10976 10976 10975 10974 10973 10972 10971 10970 10969 10968 10968 10967 10967
10946 10948 10951 10953 10955 10955 10955 10956 10957 10959 10961 10963 10965 10966 10968 10969 10970 10972 10973 10975 10976 10976 10978 10979 10980 10980 10981 10982 10982 10983 10983 10983 10984 10984 10984 10985 10986 10986 10986 10985 10984 10983 10983 10982 10982 10983 10984 10983 10983 10982 10982 10981 10981 10981 10981 10981 10981 10981 10981 10980 10980 10979 10979 10978 10978 10978 10977 10977 10976 10976 10975 10974 10974 10973 10973 10972 10971 10970 10969 10968 10967 10966 10965 10964 10963
10942 10944 10946 10949 10951 10952 10953 10954 10954 10955 10957 10959 10961 10963 10964 10966 10967 10969 10970 10972 10973 10974 10975 10976 10976 10977 10977 10978 10979 10979 10980 10980 10981 10981 10982 10983 10983 10983 10982 10981 10982 10982 10982 10981 10981 10982 10983 10983 10982 10981 10981 10980 10979 10978 10977 10977 10978 10978 10977 10977 10976 10976 10975 10975 10974 10974 10974 10973 10973 10972 10971 10971 10970 10970 10969 10969 10968 10967 10966 10966 10964 10963 10962 10961 10960
10937 10940 10942 10944 10946 10948 10950 10951 10951 10952 10954 10956 10958 10959 10961 10962 10964 10966 10967 10968 10969 10971 10972 10972 10973 10974 10975 10975 10976 10976 10976 10977 10978 10979 10979 10980 10980 10979 10978 10978 10978 10978 10979 10979 10979 10980 10980 10980 10979 10978 10977 10976 10975 10974 10974 10974 10974 10974 10974 10973 10973 10972 10972 10971 10970 10970 10969 10969 10969 10968 10968 10967 10966 10965 10965 10964 10964 10963 10962 10961 10961 10960 10959 10958 10957
10933 10936 10938 10940 10941 10943 10945 10946 10948 10949 10951 10952 10954 10956 10958 10959 10960 10962 10963 10964 10966 10967 10969 10969 10970 10971 10972 10972 10972 10972 10973 10974 10974 10975 10976 10976 10976 10975 10975 10975 10975 10975 10975 10975 10975 10975 10975 10975 10975 10974 10972 10970 10970 10971 10971 10970 10970 10970 10970 10969 10969 10968 10968 10967 10966 10965 10964 10963 10963 10963 10963 10962 10961 10961 10960 10959 10958 10958 10957 10956 10955 10955 10955 10954 10953
10929 10932 10934 10936 10937 10938 10940 10942 10944 10946 10947 10948 10950 10951 10953 10955 10956 10957 10958 10960 10962 10963 10964 10965 10966 10967 10968 10968 10968 10969 10969 10970 10970 10971 10972 10972 10972 10971 10971 10971 10971 10971 10971 10970 10970 10970 10970 10970 10970 10969 10968 10967 10967 10967 10967 10966 10966 10965 10965 10965 10965 10965 10964 10963 10962 10960 10959 10958 10958 10957 10957 10956 10955 10955 10954 10953 10953 10952 10951 10950 10950 10949 10949 10948 10947
10924 10926 10929 10931 10932 10935 10937 10939 10940 10941 10942 10943 10945 10946 10948 10949 10951 10952 10954 10955 10956 10957 10958 10960 10962 10963 10963 10963 10964 10965 10965 10966 10967 10967 10968 10968 10968 10968 10967 10967 10966 10966 10966 10966 10966 10966 10965 10966 10965 10964 10964 10964 10963 10962 10962 10961 10960 10960 10960 10961 10961 10960 10959 10958 10957 10955 10954 10954 10953 10952 10951 10950 10949 10948 10948 10947 10946 10946 10945 10944 10943 10942 10942 10941 10941
10918 10921 10924 10926 10929 10931 10934 10935 10936 10937 10939 10940 10941 10942 10943 10945 10947 10948 10949 10950 10950 10951 10953 10956 10957 10956 10957 10958 10959 10959 10960 10961 10962 10962 10963 10964 10964 10963 10962 10962 10962 10962 10962 10962 10963 10962 10961 10961 10961 10960 10960 10960 10958 10957 10957 10955 10955 10955 10956 10956 10956 10955 10954 10953 10951 10950 10950 10949 10948 10947 10946 10945 10944 10943 10942 10941 10941 10940 10939 10938 10937 10936 10935 10934 10933
10911 10915 10919 10922 10925 10928 10929 10931 10932 10933 10935 10936 10937 10938 10939 10941 10942 10943 10944 10945 10945 10945 10948 10951 10951 10950 10951 10953 10954 10954 10955 10955 10956 10957 10958 10959 10959 10958 10958 10958 10957 10957 10957 10958 10959 10958 10956 10956 10955 10954 10954 10953 10952 10952 10951 10949 10949 10950 10951 10951 10950 10949 10948 10947 10946 10945 10944 10943 10942 10941 10941 10940 10938 10937 10936 10936 10935 10934 10933 10932 10931 10929 10928 10927 10925
10908 10911 10914 10917 10921 10924 10925 10927 10928 10929 10929 10931 10933 10933 10935 10937 10938 10939 10940 10941 10940 10940 10943 10946 10946 10944 10945 10947 10948 10949 10950 10950 10951 10952 10953 10953 10954 10954 10954 10953 10953 10953 10953 10953 10953 10953 10951 10950 10948 10947 10948 10947 10946 10945 10944 10942 10943 10944 10945 10944 10943 10942 10941 10941 10941 10940 10939 10938 10937 10936 10935 10934 10933 10931 10930 10929 10929 10928 10927 10926 10925 10923 10922 10921 10919
10904 10906 10909 10912 10915 10918 10921 10923 10924 10925 10926 10927 10929 10929 10930 10932 10934 10934 10935 10936 10937 10938 10939 10941 10941 10940 10940 10941 10942 10943 10944 10945 10946 10947 10948 10948 10948 10949 10949 10948 10948 10948 10948 10948 10947 10947 10946 10943 10941 10942 10943 10942 10940 10938 10937 10936 10936 10937 10937 10936 10935 10935 10935 10935 10934 10933 10933 10932 10931 10930 10929 10928 10927 10925 10924 10923 10922 10920 10919 10918 10917 10916 10914 10913 10912
10898 10901 10904 10907 10910 10913 10917 10919 10920 10921 10922 10923 10924 10925 10927 10929 10930 10930 10929 10931 10934 10935 10935 10936 10936 10935 10934 10935 10936 10937 10938 10939 10940 10941 10942 10943 10943 10943 10943 10942 10942 10943 10943 10942 10942 10942 10940 10937 10936 10937 10937 10936 10933 10932 10931 10930 10930 10930 10930 10929 10928 10928 10928 10926 10926 10925 10925 10924 10923 10923 10922 10921 10920 10919 10917 10915 10914 10912 10911 10909 10908 10906 10905 10904 10903
10893 10896 10899 10902 10906 10909 10913 10915 10916 10917 10918 10920 10921 10923 10924 10924 10925 10925 10925 10926 10928 10929 10930 10931 10930 10929 10930 10931 10931 10931 10932 10932 10933 10935 10936 10937 10937 10937 10937 10936 10936 10936 10937 10936 10936 10935 10934 10932 10931 10930 10930 10929 10927 10926 10925 10924 10922 10922 10922 10922 10921 10921 10919 10918 10917 10916 10916 10915 10914 10914 10914 10913 10912 10910 10909 10907 10905 10903 10902 10900 10898 10897 10895 10893 10892
10887 10891 10895 10898 10902 10905 10909 10911 10912 10912 10914 10917 10919 10920 10920 10919 10919 10919 10920 10921 10921 10922 10924 10925 10924 10924 10926 10926 10925 10925 10926 10926 10927 10928 10930 10931 10931 10930 10930 10929 10929 10929 10930 10929 10929 10928 10927 10926 10924 10924 10923 10922 10921 10919 10918 10916 10915 10914 10914 10914 10913 10912 10911 10909 10909 10908 10907 10906 10906 10905 10904 10903 10902 10900 10899 10897 10895 10893 10891 10889 10886 10885 10883 10881 10880
10881 10885 10889 10893 10898 10902 10906 10907 10907 10906 10908 10912 10916 10917 10915 10914 10913 10913 10914 10915 10915 10916 10918 10919 10918 10919 10920 10920 10919 10919 10919 10919 10920 10921 10923 10924 10924 10924 10923 10922 10922 10922 10923 10922 10922 10921 10920 10919 10917 10916 10915 10914 10913 10912 10910 10909 10908 10907 10906 10905 10904 10902 10901 10900 10899 10898 10897 10896 10895 10894 10893 10891 10890 10888 10886 10884 10882 10879 10877 10875 10872 10870 10869 10867 10866
10875 10879 10883 10888 10893 10897 10900 10902 10902 10902 10902 10906 10911 10912 10911 10910 10908 10906 10906 10908 10909 10910 10911 10912 10912 10912 10913 10913 10913 10913 10912 10912 10912 10913 10915 10916 10916 10916 10916 10916 10915 10915 10916 10915 10915 10914 10913 10912 10911 10909 10907 10906 10905 10904 10903 10902 10901 10900 10898 10896 10894 10892 10890 10889 10888 10887 10886 10885 10884 10882 10880 10879 10877 10874 10871 10869 10866 10864 10861 10859 10858 10856 10854 10853 10852
10868 10873 10878 10882 10885 10889 10892 10894 10896 10895 10896 10899 10904 10905 10905 10904 10901 10899 10900 10902 10903 10902 10903 10904 10904 10904 10905 10905 10905 10905 10905 10904 10904 10905 10907 10908 10908 10909 10909 10909 10909 10908 10908 10908 10907 10907 10906 10905 10904 10902 10900 10899 10898 10897 10895 10895 10893 10891 10890 10887 10885 10882 10879 10878 10876 10876 10874 10873 10871 10869 10867 10865 10863 10860 10858 10855 10852 10850 10847 10845 10843 10841 10838 10836 10834
10862 10866 10870 10874 10877 10881 10885 10887 10888 10888 10890 10892 10894 10893 10893 10892 10891 10891 10893 10895 10895 10894 10895 10896 10897 10896 10896 10897 10897 10897 10896 10896 10896 10897 10898 10899 10900 10901 10902 10902 10902 10901 10901 10900 10899 10898 10898 10898 10897 10896 10895 10893 10892 10890 10888 10887 10885 10883 10881 10879 10876 10873 10871 10868 10867 10865 10864 10862 10860 10858 10855 10853 10850 10848 10846 10843 10840 10837 10834 10831 10829 10826 10823 10820 10816
10855 10859 10863 10867 10871 10875 10878 10878 10879 10880 10882 10883 10883 10882 10881 10882 10882 10884 10886 10887 10886 10886 10888 10889 10889 10888 10888 10888 10888 10888 10888 10888 10889 10889 10890 10891 10894 10895 10895 10895 10895 10893 10892 10892 10891 10890 10890 10890 10889 10889 10888 10887 10885 10883 10881 10880 10878 10876 10874 10872 10869 10866 10863 10861 10859 10857 10855 10853 10851 10848 10845 10842 10839 10837 10834 10831 10827 10824 10821 10818 10815 10811 10808 10804 10801
10848 10852 10856 10860 10864 10867 10869 10868 10869 10872 10873 10873 10873 10874 10874 10875 10875 10876 10878 10879 10879 10879 10880 10880 10881 10880 10879 10879 10879 10879 10879 10880 10880 10881 10882 10884 10886 10887 10887 10887 10886 10886 10885 10885 10884 10883 10882 10882 10881 10881 10880 10878 10877 10875 10873 10872 10870 10868 10866 10864 10861 10858 10855 10852 10849 10847 10845 10843 10840 10837 10833 10830 10827 10824 10821 10818 10814 10811 10808 10805 10801 10798 10794 10790 10787
10840 10844 10847 10851 10854 10857 10858 10859 10860 10862 10862 10863 10864 10866 10866 10866 10867 10868 10869 10870 10870 10869 10870 10870 10871 10871 10871 10871 10871 10872 10872 10872 10873 10874 10875 10876 10877 10877 10878 10878 10878 10878 10878 10877 10876 10875 10874 10873 10872 10871 10870 10869 10867 10866 10864 10862 10860 10858 10856 10853 10851 10848 10844 10841 10838 10835 10833 10831 10828 10824 10821 10818 10815 10811 10808 10804 10801 10797 10794 10791 10788 10784 10780 10777 10773
10831 10834 10836 10840 10843 10846 10848 10849 10851 10852 10853 10854 10856 10857 10857 10858 10859 10859 10860 10860 10860 10861 10861 10862 10863 10864 10864 10864 10864 10864 10865 10865 10865 10865 10866 10866 10866 10867 10869 10870 10871 10870 10870 10869 10867 10866 10865 10864 10862 10861 10860 10859 10857 10856 10854 10852 10850 10847 10845 10842 10839 10836 10833 10830 10826 10824 10821 10818 10815 10812 10809 10805 10802 10798 10794 10791 10787 10784 10780 10776 10772 10768 10764 10760 10756
10822 10825 10826 10829 10832 10836 10837 10837 10838 10841 10843 10845 10847 10848 10849 10850 10850 10850 10851 10852 10852 10853 10853 10854 10855 10856 10857 10858 10857 10856 10856 10856 10856 10856 10856 10856 10857 10857 10859 10860 10860 10860 10860 10859 10857 10856 10855 10853 10852 10850 10849 10848 10846 10845 10843 10841 10838 10836 10833 10831 10828 10825 10822 10819 10815 10812 10809 10806 10802 10799 10795 10792 10788 10784 10780 10777 10773 10769 10765 10760 10756 10751 10746 10742 10737
10813 10816 10818 10819 10822 10825 10826 10825 10826 10829 10833 10836 10839 10840 10841 10842 10842 10842 10843 10844 10844 10845 10846 10847 10848 10849 10849 10850 10849 10848 10847 10847 10847 10847 10848 10848 10848 10848 10848 10848 10848 10848 10848 10847 10846 10844 10843 10842 10840 10839 10838 10836 10834 10833 10831 10829 10826 10824 10821 10818 10816 10813 10810 10807 10803 10800 10796 10792 10789 10785 10781 10777 10773 10769 10765 10761 10756 10752 10748 10743 10739 10734 10729 10724 10719
10804 10808 10810 10811 10813 10815 10817 10816 10816 10818 10823 10827 10830 10831 10832 10833 10834 10835 10836 10837 10838 10839 10840 10840 10840 10840 10840 10840 10839 10839 10839 10838 10838 10838 10839 10839 10838 10838 10837 10837 10836 10835 10835 10834 10834 10833 10831 10830 10829 10827 10826 10824 10822 10820 10818 10816 10814 10811 10808 10806 10803 10800 10797 10794 10790 10786 10782 10778 10775 10771 10766 10762 10758 10753 10749 10745 10740 10735 10731 10726 10721 10717 10713 10708 10703
10794 10799 10801 10802 10804 10805 10807 10808 10809 10809 10813 10818 10821 10823 10824 10826 10827 10828 10829 10830 10830 10830 10831 10832 10832 10832 10831 10830 10830 10830 10830 10830 10829 10829 10828 10828 10828 10827 10827 10826 10825 10824 10824 10823 10822 10821 10820 10819 10817 10816 10814 10812 10810 10808 10806 10803 10801 10798 10795 10793 10790 10787 10784 10780 10776 10773 10769 10765 10761 10757 10753 10748 10743 10738 10733 10729 10724 10719 10714 10709 10704 10699 10695 10691 10686
10785 10789 10792 10794 10796 10796 10797 10799 10800 10801 10803 10808 10811 10814 10816 10818 10820 10820 10821 10821 10821 10821 10822 10822 10823 10823 10822 10822 10822 10821 10821 10820 10819 10818 10818 10817 10817 10816 10816 10815 10814 10814 10813 10812 10811 10810 10809 10807 10806 10804 10802 10800 10798 10795 10793 10790 10788 10785 10782 10780 10777 10774 10770 10766 10762 10759 10755 10751 10747 10742 10738 10733 10728 10723 10718 10713 10708 10702 10697 10692 10687 10682 10677 10672 10667
10776 10781 10784 10786 10787 10787 10788 10790 10791 10793 10795 10798 10801 10804 10807 10809 10811 10811 10811 10812 10812 10813 10813 10813 10812 10812 10812 10812 10813 10812 10811 10811 10810 10809 10808 10808 10807 10806 10805 10804 10803 10803 10802 10801 10800 10798 10797 10795 10793 10791 10789 10787 10784 10782 10780 10777 10774 10772 10769 10766 10763 10759 10756 10752 10748 10744 10740 10736 10731 10727 10722 10718 10713 10708 10702 10697 10691 10686 10680 10675 10670 10665 10659 10654 10649
10766 10770 10773 10775 10777 10778 10779 10781 10783 10785 10788 10790 10792 10795 10797 10799 10800 10802 10803 10803 10804 10804 10804 10803 10803 10802 10802 10803 10803 10803 10802 10802 10801 10800 10799 10798 10797 10796 10794 10793 10792 10791 10791 10789 10788 10787 10785 10782 10780 10778 10776 10774 10771 10769 10766 10763 10761 10758 10755 10751 10748 10744 10740 10736 10732 10728 10724 10720 10715 10711 10706 10702 10697 10692 10687 10681 10676 10670 10664 10659 10653 10648 10643 10637 10631
10755 10758 10761 10764 10766 10768 10769 10771 10774 10777 10779 10782 10783 10785 10787 10789 10791 10792 10794 10795 10795 10795 10794 10793 10793 10793 10793 10793 10793 10793 10793 10792 10791 10790 10789 10788 10786 10785 10784 10783 10781 10780 10779 10778 10776 10774 10772 10770 10767 10765 10763 10760 10758 10755 10752 10749 10746 10743 10739 10735 10732 10728 10725 10721 10717 10713 10708 10704 10700 10696 10691 10686 10681 10676 10671 10666 10660 10654 10648 10643 10637 10631 10625 10619 10612
10743 10747 10750 10753 10756 10758 10760 10763 10765 10768 10770 10772 10774 10776 10778 10780 10782 10783 10784 10785 10785 10784 10784 10783 10783 10783 10783 10783 10784 10784 10783 10782 10781 10780 10778 10777 10776 10774 10773 10772 10771 10769 10768 10766 10764 10761 10759 10757 10754 10752 10749 10747 10744 10741 10738 10735 10732 10728 10724 10720 10716 10713 10709 10705 10702 10698 10693 10689 10684 10680 10675 10670 10664 10659 10654 10648 10643 10637 10631 10625 10619 10613 10606 10599 10593
10732 10735 10738 10742 10745 10748 10751 10753 10755 10758 10760 10762 10764 10766 10768 10770 10772 10773 10773 10774 10774 10774 10773 10773 10773 10773 10773 10773 10773 10773 10772 10771 10770 10769 10767 10766 10765 10763 10762 10761 10759 10758 10756 10754 10752 10750 10747 10745 10742 10739 10736 10734 10731 10728 10725 10721 10717 10713 10709 10705 10701 10697 10694 10690 10686 10682 10677 10673 10668 10663 10658 10653 10647 10641 10636 10630 10624 10618 10612 10605 10599 10592 10585 10578 10571
10723 10724 10727 10731 10735 10738 10741 10742 10744 10746 10749 10751 10753 10755 10757 10759 10760 10761 10761 10762 10762 10762 10762 10761 10761 10761 10761 10761 10761 10761 10760 10759 10758 10757 10755 10754 10753 10752 10751 10749 10748 10746 10744 10742 10740 10738 10735 10732 10729 10727 10724 10721 10717 10714 10711 10707 10702 10698 10694 10690 10686 10682 10678 10674 10670 10665 10660 10655 10650 10645 10640 10634 10628 10623 10617 10611 10604 10598 10592 10585 10578 10571 10564 10557 10550
10715 10716 10719 10722 10725 10728 10730 10731 10733 10735 10738 10740 10742 10744 10745 10746 10747 10748 10750 10750 10750 10750 10749 10749 10750 10750 10750 10750 10750 10749 10748 10746 10745 10744 10743 10742 10741 10740 10739 10737 10736 10734 10732 10730 10728 10725 10722 10720 10716 10713 10710 10707 10704 10700 10696 10691 10687 10682 10678 10674 10670 10666 10661 10657 10652 10648 10643 10638 10632 10627 10621 10615 10610 10604 10597 10591 10585 10578 10572 10565 10558 10551 10544 10537 10530
10706 10709 10711 10713 10716 10718 10720 10721 10723 10726 10728 10730 10731 10732 10733 10734 10735 10736 10737 10738 10738 10737 10737 10737 10738 10739 10739 10739 10738 10737 10736 10734 10733 10732 10731 10730 10729 10727 10726 10725 10723 10722 10720 10717 10715 10712 10709 10706 10703 10699 10696 10693 10689 10685 10680 10676 10671 10667 10662 10658 10654 10649 10645 10640 10635 10630 10625 10619 10614 10609 10603 10597 10591 10584 10578 10571 10565 10559 10552 10545 10539 10532 10525 10517 10510
10698 10701 10703 10705 10707 10709 10712 10714 10716 10719 10720 10721 10722 10722 10723 10724 10724 10725 10725 10725 10725 10725 10725 10725 10726 10727 10727 10727 10726 10725 10724 10723 10722 10721 10719 10718 10717 10716 10714 10713 10711 10709 10706 10704 10701 10698 10694 10691 10688 10684 10681 10677 10673 10669 10664 10660 10656 10651 10647 10642 10638 10633 10628 10623 10618 10612 10607 10601 10596 10590 10584 10578 10572 10565 10559 10552 10546 10540 10533 10526 10520 10513 10506 10498 10490
10692 10693 10695 10696 10698 10700 10702 10704 10706 10708 10709 10709 10709 10710 10710 10711 10712 10713 10713 10713 10713 10713 10714 10714 10715 10716 10716 10715 10714 10712 10711 10711 10710 10710 10708 10707 10705 10704 10702 10700 10698 10695 10692 10689 10685 10682 10679 10676 10672 10669 10665 10662 10657 10653 10649 10645 10640 10636 10631 10626 10622 10617 10612 10607 10601 10595 10589 10584 10578 10572 10566 10560 10553 10547 10541 10534 10528 10522 10516 10509 10502 10495 10487 10480 10472
10684 10686 10687 10688 10689 10690 10691 10692 10694 10695 10695 10695 10696 10697 10699 10700 10701 10702 10701 10701 10701 10702 10703 10704 10705 10705 10704 10703 10702 10700 10700 10699 10699 10698 10696 10695 10693 10691 10689 10686 10684 10681 10677 10674 10671 10668 10664 10661 10658 10654 10650 10647 10642 10638 10634 10630 10625 10620 10616 10610 10605 10600 10596 10590 10585 10578 10572 10567 10561 10555 10549 10543 10537 10531 10524 10518 10512 10506 10499 10492 10485 10478 10471 10464 10457
10677 10678 10679 10680 10681 10681 10682 10682 10683 10684 10684 10684 10685 10686 10689 10691 10692 10691 10691 10690 10691 10692 10693 10694 10694 10694 10693 10691 10690 10689 10688 10688 10687 10686 10684 10682 10681 10678 10676 10674 10671 10667 10664 10660 10657 10654 10651 10647 10644 10640 10636 10632 10627 10623 10619 10615 10610 10605 10600 10595 10589 10584 10580 10575 10569 10563 10557 10551 10545 10539 10533 10528 10522 10516 10510 10503 10496 10490 10483 10475 10468 10461 10455 10449 10443
10668 10670 10671 10672 10673 10673 10674 10675 10675 10676 10675 10675 10675 10676 10678 10680 10681 10681 10680 10680 10680 10681 10682 10683 10683 10682 10681 10680 10679 10678 10677 10676 10675 10674 10672 10671 10668 10666 10664 10661 10658 10655 10651 10647 10644 10640 10637 10633 10629 10625 10621 10617 10612 10608 10604 10600 10595 10590 10585 10580 10575 10570 10565 10560 10555 10549 10543 10537 10531 10526 10520 10514 10508 10501 10495 10488 10481 10474 10466 10459 10452 10446 10440 10435 10429
10658 10659 10661 10662 10664 10665 10666 10666 10667 10667 10667 10666 10666 10667 10668 10669 10669 10669 10669 10669 10670 10671 10671 10672 10671 10670 10670 10669 10668 10667 10666 10664 10663 10663 10661 10660 10657 10654 10651 10648 10645 10642 10638 10634 10630 10626 10622 10619 10615 10611 10607 10602 10598 10594 10590 10586 10581 10576 10571 10566 10561 10556 10551 10546 10540 10535 10529 10523 10518 10512 10505 10499 10492 10486 10479 10473 10466 10458 10451 10445 10438 10432 10426 10421 10416